Home   Weather   Chaguanas   Past weeks

Flag for Trinidad and Tobago Past Weather in Chaguanas, Trinidad and Tobago — Yesterday and Last 2 Weeks

Now
77 °F

Scattered showers. Passing clouds.


Feels Like: 78 °F
Forecast: 78 / 89 °F
Wind: No wind

Location: Piarco International Airport - Trinidad

Current Time: Sep 30, 2016 at 7:51:07 AM

Latest Report: Sep 30, 2016 at 7:00 AM


Visibility: 5 mi

Pressure: 29.86 "Hg

Humidity: 94%

Dew Point: 75 °F

Location of ChaguanasLocation

Past Weather in Chaguanas — Graph

°F

Chaguanas Temperature Yesterday

Maximum temperature yesterday: 82 °F (at 7:00 AM)
Minimum temperature yesterday: 75 °F (at 10:00 AM)
Average temperature yesterday: 78 °F

High & Low Weather Summary for the Past Weeks

 TemperatureHumidityPressure
High95 °F (Sep 22, 12:00 PM)100% (Sep 17, 4:00 AM)30.01 "Hg (Sep 17, 4:00 AM)
Low75 °F (Sep 17, 4:00 AM)49% (Sep 16, 2:00 PM)29.80 "Hg (Sep 21, 4:00 PM)
Average83 °F81%29.89 "Hg
* Reported Sep 15 6:00 AM — Sep 30 6:00 AM, Chaguanas, Weather by CustomWeather, © 2016

Note: Actual official high and low records may vary slightly from our data, if they occured in-between our weather recording intervals... More about our weather records

Advertising

Chaguanas Weather History for the Previous 24 Hours

Scroll right to see more
 ConditionsComfort  
Time TempWeatherWind HumidityBarometerVisibility
6:00 AM
Fri, Sep 30
75 °FPassing clouds.No wind100%29.83 "Hg5 mi
5:00 AM75 °FPassing clouds.No wind100%29.83 "HgN/A
4:00 AM77 °FPassing clouds.No wind94%29.83 "HgN/A
3:00 AM75 °FPassing clouds.No wind100%29.83 "HgN/A
2:00 AM77 °FPassing clouds.No wind100%29.83 "HgN/A
1:00 AM77 °FPassing clouds.No wind100%29.86 "HgN/A
12:00 AM77 °FPassing clouds.No wind100%29.86 "HgN/A
11:00 PM
Thu, Sep 29
77 °FPassing clouds.No wind100%29.89 "HgN/A
10:00 PM79 °FPassing clouds.7 mph94%29.89 "HgN/A
9:00 PM79 °FPassing clouds.No wind94%29.89 "HgN/A
8:00 PM77 °FSprinkles. Passing clouds.13 mph94%29.89 "HgN/A
7:00 PM79 °FPassing clouds.8 mph89%29.86 "HgN/A
6:00 PM81 °FScattered showers. Passing clouds.12 mph79%29.83 "HgN/A
5:00 PM81 °FScattered showers. Passing clouds.No wind89%29.83 "HgN/A
4:00 PM81 °FPassing clouds.7 mph84%29.83 "HgN/A
3:00 PM79 °FScattered clouds.10 mph89%29.83 "HgN/A
2:00 PM75 °FThunderstorms. Cloudy.15 mph94%29.86 "HgN/A
1:00 PM75 °FThunderstorms. Broken clouds.12 mph94%29.89 "Hg4 mi
12:00 PM77 °FThunderstorms. Scattered clouds.8 mph94%29.89 "Hg2 mi
10:00 AM75 °FThunderstorms. Passing clouds.12 mph100%29.89 "Hg4 mi
9:00 AM79 °FThunderstorms. Scattered clouds.14 mph89%29.89 "Hg5 mi
7:00 AM82 °FPassing clouds.No wind89%29.86 "HgN/A
Weather by CustomWeather, © 2016

See weather overviewHow to use our weather pages